Location: Unspecified
(0.0000°N, 0.0000°E)
Time: 00:04:30
(UTC+00:00)

Explorer 11/Cluster Stage 4 - Pass Details

Date: 16 December 2018
Orbit: 467 x 1260 km, 28.8° (Epoch: 18 January)

Event Time Altitude Azimuth Distance (km) Brightness Sun altitude
Rises 21:40:49 0° 251° (WSW) 4,045 10.8 -49.8°
Reaches altitude 10° 21:43:59 10° 256° (WSW) 2,989 9.9 -50.4°
Enters shadow 21:44:50 13° 258° (WSW) 2,711 9.7 -50.6°
